Вернуться в каталог

STARLINK-32518

АктивенСвязьVLEO
NORAD 61967·PAYLOAD·🇺🇸 United States

Запущен Nov 14, 2024 с Cape Canaveral Space Force Station

Loading…

Ближайшие Пролёты (ближайшие 24 часа)

TLE

СвежийSource: CelesTrak SupGP

Эпоха: Sep 15, 2026, 02:43 UTC

1 61967C 24210J   26258.11368056  .00007927  00000+0  28728-3 0  2583
2 61967  42.9993 183.1655 0001277 271.6443 221.0550 15.27555573    11

Отслеживайте STARLINK-32518 в реальном времени с AllMySat

Download on the App Store